Vernon, TX

5:26 PM CST on November 22, 2019 (GMT -0600)
Vernon

Weather History for KF05 - October, 2019

Change the Weather History Date:

Sunday, October 20, 2019

  Actual Average (KLTS) Record (KLTS)
Temperature  
Mean Temperature 70 °F -  
Max Temperature 91 °F 72 °F 95 °F (2007)
Min Temperature 48 °F 48 °F 33 °F (1999)
Cooling Degree Days 4    
Growing Degree Days 20 (Base 50)    
Moisture  
Dew Point 43 °F    
Average Humidity 47    
Maximum Humidity 84    
Minimum Humidity 16    
Precipitation  
Precipitation 0.00 in - - ()
Sea Level Pressure  
Sea Level Pressure 29.71 in    
Wind  
Wind Speed 7 mph (SSW)    
Max Wind Speed 23 mph    
Max Gust Speed 36 mph    
Visibility 10 miles    
Events      
Averages and records for this station are not official NWS values.
T = Trace of Precipitation, MM = Missing Value Source: NWS Daily Summary

Daily Weather History Graph

Daily Weather History Graph

Search for Another Location

Airport or City:

Astronomy

Oct. 20, 2019 Rise Set
Actual Time 7:46 AM CDT 6:56 PM CDT
Civil Twilight 7:20 AM CDT 7:22 PM CDT
Nautical Twilight 6:51 AM CDT 7:51 PM CDT
Astronomical Twilight 6:22 AM CDT 8:20 PM CDT
Moon No Moon Rise 2:05 PM CDT (10/20)
Length of Visible Light 12h 01m
Length of Day
11h 10m
Waning Gibbous, 59% of the Moon is Illuminated
Oct 20
Waning Gibbous
Oct 21
Last Quarter
Oct 27
New
Nov 4
First Quarter
Nov 12
Full

Hourly Weather History & Observations

Time (CDT) Temp. Dew Point Humidity Pressure Visibility Wind Dir Wind Speed Gust Speed Precip Events Conditions
12:15 AM 58.6 °F 42.8 °F 56% 29.84 in 10.0 mi ESE 4.6 mph - N/A   Clear
12:35 AM 57.6 °F 43.3 °F 59% 29.83 in 10.0 mi SE 6.9 mph - N/A   Clear
12:55 AM 57.7 °F 44.1 °F 60% 29.83 in 10.0 mi ESE 5.8 mph - N/A   Clear
1:15 AM 57.2 °F 43.9 °F 61% 29.82 in 10.0 mi ESE 3.5 mph - N/A   Clear
1:35 AM 56.1 °F 43.7 °F 63% 29.82 in 10.0 mi Calm Calm - N/A   Clear
1:55 AM 55.2 °F 43.5 °F 65% 29.82 in 10.0 mi ESE 3.5 mph - N/A   Clear
2:15 AM 54.0 °F 43.0 °F 66% 29.82 in 10.0 mi Calm Calm - N/A   Clear
2:35 AM 52.2 °F 42.4 °F 69% 29.82 in 10.0 mi Calm Calm - N/A   Clear
3:15 AM 51.3 °F 42.8 °F 73% 29.81 in 10.0 mi Calm Calm - N/A   Clear
3:35 AM 52.5 °F 43.3 °F 71% 29.80 in 10.0 mi Calm Calm - N/A   Clear
3:55 AM 53.4 °F 43.5 °F 69% 29.79 in 10.0 mi SE 3.5 mph - N/A   Clear
4:15 AM 52.7 °F 43.7 °F 71% 29.79 in 10.0 mi Calm Calm - N/A   Clear
4:35 AM 51.6 °F 43.0 °F 72% 29.78 in 10.0 mi Calm Calm - N/A   Clear
4:55 AM 50.0 °F 42.4 °F 75% 29.77 in 10.0 mi SSE 4.6 mph - N/A   Clear
5:15 AM 51.3 °F 43.0 °F 73% 29.78 in 10.0 mi Calm Calm - N/A   Clear
5:35 AM 50.4 °F 42.8 °F 75% 29.78 in 10.0 mi Calm Calm - N/A   Clear
5:55 AM 48.9 °F 42.8 °F 79% 29.79 in 10.0 mi South 6.9 mph - N/A   Clear
6:15 AM 48.9 °F 43.5 °F 82% 29.80 in 10.0 mi Calm Calm - N/A   Clear
6:35 AM 49.1 °F 43.7 °F 82% 29.80 in 10.0 mi South 5.8 mph - N/A   Clear
6:55 AM 49.6 °F 44.1 °F 81% 29.80 in 10.0 mi South 5.8 mph - N/A   Clear
7:15 AM 49.3 °F 44.1 °F 82% 29.81 in 10.0 mi SSE 4.6 mph - N/A   Clear
7:35 AM 49.3 °F 43.9 °F 82% 29.81 in 10.0 mi South 5.8 mph - N/A   Clear
7:55 AM 48.6 °F 43.9 °F 84% 29.80 in 10.0 mi SSE 4.6 mph - N/A   Clear
8:15 AM 49.5 °F 44.4 °F 83% 29.80 in 10.0 mi South 3.5 mph - N/A   Clear
8:35 AM 50.0 °F 45.1 °F 83% 29.79 in 10.0 mi SSE 4.6 mph - N/A   Clear
8:55 AM 52.5 °F 46.6 °F 80% 29.80 in 10.0 mi Calm Calm - N/A   Clear
9:15 AM 54.7 °F 47.1 °F 76% 29.80 in 10.0 mi Calm Calm - N/A   Clear
9:35 AM 57.0 °F 48.0 °F 72% 29.80 in 10.0 mi South 5.8 mph - N/A   Clear
9:55 AM 59.9 °F 49.1 °F 67% 29.80 in 10.0 mi South 10.4 mph - N/A   Clear
10:15 AM 63.7 °F 50.2 °F 61% 29.80 in 10.0 mi South 11.5 mph - N/A   Clear
10:35 AM 66.4 °F 50.7 °F 57% 29.79 in 10.0 mi South 10.4 mph - N/A   Clear
10:55 AM 69.4 °F 51.1 °F 52% 29.77 in 10.0 mi South 15.0 mph 19.6 mph N/A   Clear
11:15 AM 72.3 °F 50.9 °F 47% 29.76 in 10.0 mi South 15.0 mph 21.9 mph N/A   Clear
11:35 AM 74.8 °F 50.7 °F 43% 29.75 in 10.0 mi South 17.3 mph - N/A   Clear
11:55 AM 77.4 °F 50.4 °F 39% 29.73 in 10.0 mi South 17.3 mph 20.7 mph N/A   Clear
12:15 PM 79.2 °F 50.0 °F 36% 29.72 in 10.0 mi SSW 18.4 mph 24.2 mph N/A   Clear
12:35 PM 81.0 °F 49.5 °F 33% 29.71 in 10.0 mi South 18.4 mph 26.5 mph N/A   Clear
12:55 PM 82.2 °F 50.0 °F 33% 29.69 in 10.0 mi SSW 19.6 mph 27.6 mph N/A   Clear
1:15 PM 83.5 °F 50.2 °F 31% 29.68 in 10.0 mi SSW 15.0 mph - N/A   Clear
1:35 PM 84.9 °F 50.0 °F 30% 29.67 in 10.0 mi SSW 17.3 mph 24.2 mph N/A   Clear
1:55 PM 85.8 °F 49.3 °F 28% 29.65 in 10.0 mi SSW 15.0 mph 27.6 mph N/A   Clear
2:35 PM 87.8 °F 48.9 °F 26% 29.62 in 10.0 mi SW 17.3 mph 20.7 mph N/A   Clear
2:55 PM 88.5 °F 48.2 °F 25% 29.61 in 10.0 mi SW 12.7 mph 23.0 mph N/A   Clear
3:15 PM 89.2 °F 47.7 °F 24% 29.60 in 10.0 mi SW 18.4 mph 24.2 mph N/A   Clear
3:35 PM 89.8 °F 46.6 °F 22% 29.58 in 10.0 mi WSW 18.4 mph 25.3 mph N/A   Clear
3:55 PM 90.3 °F 46.2 °F 22% 29.57 in 10.0 mi SW 16.1 mph 27.6 mph N/A   Scattered Clouds
4:15 PM 90.7 °F 45.7 °F 21% 29.57 in 10.0 mi SSW 18.4 mph - N/A   Scattered Clouds
4:35 PM 90.7 °F 43.9 °F 20% 29.57 in 10.0 mi SSW 17.3 mph 23.0 mph N/A   Scattered Clouds
4:55 PM 90.9 °F 42.6 °F 19% 29.56 in 10.0 mi SW 18.4 mph 25.3 mph N/A   Scattered Clouds
5:15 PM 91.4 °F 39.9 °F 17% 29.55 in 10.0 mi SW 12.7 mph 20.7 mph N/A   Clear
5:35 PM 91.0 °F 38.7 °F 16% 29.54 in 10.0 mi SW 15.0 mph 18.4 mph N/A   Clear
5:55 PM 90.1 °F 38.3 °F 16% 29.54 in 10.0 mi WSW 12.7 mph 16.1 mph N/A   Clear
6:15 PM 88.3 °F 39.7 °F 18% 29.54 in 10.0 mi WSW 6.9 mph - N/A   Clear
6:35 PM 84.9 °F 41.2 °F 21% 29.54 in 10.0 mi WSW 4.6 mph - N/A   Clear
6:50 PM 83.8 °F 41.0 °F 22% 29.54 in 10.0 mi WSW 4.6 mph - N/A   Clear
7:15 PM 81.0 °F 42.4 °F 25% 29.55 in 10.0 mi WNW 8.1 mph - N/A   Unknown
7:35 PM 79.3 °F 42.3 °F 27% 29.55 in 10.0 mi NW 6.9 mph - N/A   Clear
7:55 PM 77.5 °F 42.1 °F 28% 29.55 in 10.0 mi NW 5.8 mph - N/A   Clear
8:15 PM 75.7 °F 41.4 °F 29% 29.55 in 10.0 mi NW 6.9 mph - N/A   Clear
8:35 PM 75.0 °F 41.2 °F 30% 29.56 in 10.0 mi WNW 6.9 mph - N/A   Clear
8:55 PM 73.2 °F 44.1 °F 35% 29.57 in 10.0 mi West 6.9 mph - N/A   Scattered Clouds
9:35 PM 74.8 °F 37.8 °F 26% 29.63 in 10.0 mi NNW 21.9 mph 35.7 mph N/A   Clear
9:55 PM 71.8 °F 34.2 °F 25% 29.65 in 10.0 mi North 21.9 mph 35.7 mph N/A   Clear
10:15 PM 68.7 °F 33.1 °F 27% 29.66 in 10.0 mi North 20.7 mph 26.5 mph N/A   Clear
10:35 PM 67.3 °F 31.8 °F 27% 29.68 in 10.0 mi North 16.1 mph 24.2 mph N/A   Clear
10:55 PM 66.9 °F 29.8 °F 25% 29.69 in 10.0 mi North 21.9 mph 27.6 mph N/A   Clear
11:15 PM 66.9 °F 28.6 °F 24% 29.71 in 10.0 mi North 18.4 mph 24.2 mph N/A   Clear
11:35 PM 66.2 °F 28.0 °F 24% 29.70 in 10.0 mi North 23.0 mph 33.4 mph N/A   Clear
11:55 PM 64.9 °F 28.0 °F 25% 29.72 in 10.0 mi North 10.4 mph - N/A   Clear